Regional Weather Roundup
Issued by NWS Sioux Falls, SD

Home | Current Version | Previous Version | Graphics & Text | Print | Product List | Glossary On
Versions: 1 2 3 4 5 6 7 8 9 10 11 12 13 14 15 16 17 18 19 20 21 22 23 24 25 26 27 28 29 30 31 32 33 34 35 36 37 38 39 40 41 42 43 44 45 46 47 48 49 50
000
ASUS43 KFSD 251910
RWRFSD

WEATHER ROUNDUP FOR SE SOUTH DAKOTA/SW MINNESOTA/NW IOWA
NATIONAL WEATHER SERVICE SIOUX FALLS SD
200 PM CDT FRI JUL 25 2014

NOTE: "FAIR" INDICATES FEW OR NO CLOUDS BELOW 12,000 FEET WITH NO
SIGNIFICANT WEATHER AND OR OBSTRUCTIONS TO VISIBILITY.


SDZ038>040-050-052>070-252000-
SOUTHEAST SOUTH DAKOTA

CITY           SKY/WX    TMP DP  RH WIND       PRES   REMARKS
CHAMBERLAIN    SUNNY     86  69  56 N15G22    29.81S
HURON          MOSUNNY   80  68  66 N12       29.79R
MADISON        CLOUDY    79  73  83 SW5       29.80S
MITCHELL       SUNNY     86  69  56 NW9       29.78R
SIOUX FALLS    CLOUDY    80  70  71 CALM      29.79R
WINNER         FAIR      91  67  44 N12G20    29.84S
YANKTON        PTSUNNY   82  72  69 N3        29.77S
$$

MNZ071-072-080-081-089-090-097-098-252000-
SOUTHWEST MINNESOTA

CITY           SKY/WX    TMP DP  RH WIND       PRES   REMARKS
FAIRMONT       PTSUNNY   79  61  53 S15       29.80S
JACKSON        MOSUNNY   79  64  61 SW12      29.81S
LUVERNE        MOSUNNY   79  68  69 S9        29.79F
MARSHALL       SUNNY     82  70  65 W10       29.76S
MONTEVIDEO     CLOUDY    82  73  74 W5        29.77S
PIPESTONE      MOSUNNY   79  70  73 W8        29.80S
REDWOOD FALLS  MOSUNNY   82  68  62 S12       29.77S
TRACY          SUNNY     81  70  69 SW12      29.78S
WINDOM         MOSUNNY   81  66  61 S12       29.79F
WORTHINGTON    MOSUNNY   79  70  73 S8        29.81S
$$

IAZ001>003-012>014-020>022-031-032-NEZ013-014-SDZ071-252000-
NORTHWEST IOWA

CITY           SKY/WX    TMP DP  RH WIND       PRES   REMARKS
CHEROKEE       MOSUNNY   78  69  73 SE6       29.78F
DENISON        SUNNY     79  70  73 S12       29.77F
ESTHERVILLE    MOSUNNY   77  67  71 S16       29.80S
LE MARS        PTSUNNY   81  70  69 VRB3      29.79R
ORANGE CITY    PTSUNNY   79  66  65 SW6       29.80R
SHELDON        CLOUDY    77  70  78 S7G13     29.79S
SIOUX CITY     SUNNY     84  71  65 S3        29.77R
SPENCER        SUNNY     79  68  69 S8        29.80S
STORM LAKE     PTSUNNY   77  70  78 S7G15     29.81S
$$

ABBREVIATIONS USED IN REMARKS
   TC - TEMPERATURE IN CELSIUS
  WCI - WIND CHILL INDEX
   HX - HEAT INDEX
  VSB - VISIBILITY




USA.gov is the U.S. government's official web portal to all federal, state and local government web resources and services.